CARTOSAT-2C

Last updated on Mon Jun 22 2026 00:02:51 GMT+0000 (Coordinated Universal Time)

1 41599U 16040A 26172.47353941 .00002592 00000+0 12622-3 0 9996 2 41599 97.4481 232.3930 0010398 117.8659 242.3630 15.19218886554365
UTC large
Height (km)
Speed (km/s)
/
Latitude / Longitude
Inclination (degrees)
Orbital Period (minutes)
Azimuth
Elevation
Range (km)
Doppler Factor

Next 0 passes for location: London (51.5072 / 0.1276)

No passes found over London.
CARTOSAT-2C